This is the latest recevied weather packets stored in our database for station/object W5CRT. If no packets are shown the sender has not sent any weather packets the latest 1 day(s).
| Time | Temp. | Humidity | Pressure | Rain* | Wind** | Luminosity | Snow |
|---|---|---|---|---|---|---|---|
| 1778012267 | 30° C | 62% | 1002.9 hPa | 0 mm | 0.45 m/s, 179° | 988 W/m² | - |
| 1778011965 | 30.56° C | 61% | 1003.1 hPa | 0 mm | 1.79 m/s, 162° | 940 W/m² | - |
| 1778011663 | 30.56° C | 61% | 1003.4 hPa | 0 mm | 1.79 m/s, 203° | 860 W/m² | - |
| 1778011360 | 30.56° C | 63% | 1003.4 hPa | 0 mm | 0.45 m/s, 202° | 1042 W/m² | - |
| 1778011055 | 30° C | 63% | 1003.1 hPa | 0 mm | 3.13 m/s, 201° | 1035 W/m² | - |
| 1778010753 | 30° C | 63% | 1003.4 hPa | 0 mm | 2.24 m/s, 157° | 938 W/m² | - |
| 1778010450 | 29.44° C | 65% | 1003.5 hPa | 0 mm | 1.34 m/s, 178° | 865 W/m² | - |
| 1778010146 | 29.44° C | 64% | 1003.5 hPa | 0 mm | 1.34 m/s, 172° | 784 W/m² | - |
| 1778009842 | 29.44° C | 64% | 1003.3 hPa | 0 mm | 0.89 m/s, 53° | 1002 W/m² | - |
| 1778009540 | 29.44° C | 65% | 1003.4 hPa | 0 mm | 0.89 m/s, 176° | 976 W/m² | - |
| 1778009238 | 29.44° C | 64% | 1003.4 hPa | 0 mm | 2.68 m/s, 229° | 933 W/m² | - |
| 1778008935 | 28.89° C | 66% | 1003.4 hPa | 0 mm | 0 m/s | 885 W/m² | - |
| 1778008634 | 28.33° C | 66% | 1003.3 hPa | 0 mm | 1.34 m/s, 204° | 822 W/m² | - |
| 1778008332 | 28.33° C | 68% | 1003.4 hPa | 0 mm | 1.79 m/s, 227° | 788 W/m² | - |
| 1778008028 | 28.33° C | 65% | 1003.3 hPa | 0 mm | 0.89 m/s, 178° | 739 W/m² | - |
| 1778007727 | 28.33° C | 65% | 1003.3 hPa | 0 mm | 3.58 m/s, 145° | 782 W/m² | - |
| 1778007424 | 28.33° C | 66% | 1003.4 hPa | 0 mm | 2.24 m/s, 159° | 726 W/m² | - |
| 1778007121 | 28.33° C | 66% | 1003.2 hPa | 0 mm | 1.34 m/s, 167° | 532 W/m² | - |
| 1778006817 | 27.78° C | 67% | 1003.6 hPa | 0 mm | 1.79 m/s, 223° | 489 W/m² | - |
| 1778006514 | 27.78° C | 67% | 1003.6 hPa | 0 mm | 1.79 m/s, 174° | 458 W/m² | - |
| 1778006211 | 28.33° C | 66% | 1003.4 hPa | 0 mm | 2.24 m/s, 152° | 403 W/m² | - |
| 1778005909 | 28.33° C | 66% | 1003.3 hPa | 0 mm | 1.79 m/s, 174° | 510 W/m² | - |
| 1778005604 | 28.33° C | 65% | 1003.5 hPa | 0 mm | 3.13 m/s, 205° | 436 W/m² | - |
| 1778005302 | 28.33° C | 63% | 1003.6 hPa | 0 mm | 2.24 m/s, 183° | 473 W/m² | - |
| 1778004998 | 28.33° C | 65% | 1003.5 hPa | 0 mm | 4.02 m/s, 229° | 582 W/m² | - |
* Rain latest hour (hover to see other rain measurements)
** Current wind speed in m/s (hover to see current wind gust speed)